Location: ???????
(54.6339°N, 39.4245°E)
Time: 03:55:57
(UTC+00:00)

SeaSat 1 - Pass Details

Date: 19 May 2025
Orbit: 738 x 740 km, 108.0° (Epoch: 15 June)

Event Time Altitude Azimuth Distance (km) Brightness Sun altitude
Exits shadow 19:57:04 16° 189° (S) 1,883 4.0 -13.4°
Maximum altitude 20:00:28 35° 248° (WSW) 1,196 3.5 -13.5°
Drops below altitude 10° 20:04:57 10° 314° (NW) 2,261 5.9 -13.7°
Sets 20:07:25 0° 323° (NW) 3,189 7.2 -13.9°
